Overview Statistics Trail Chart Weather Telemetry Raw packets
 

This is the latest recevied weather packets stored in our database for station/object IQ5VK-13. If no packets are shown the sender has not sent any weather packets the latest 10 day(s).

<< 12 13 14 15 16 >>
Time Temp. Humidity Pressure Rain* Wind** Luminosity Snow
1788110892 22.22° C 67% 1018.8 hPa - - - -
1788109692 23.33° C 64% 1019 hPa - - - -
1788108492 23.89° C 62% 1018.9 hPa - - - -
1788107291 25° C 56% 1019.2 hPa - - - -
1788106091 25.56° C 56% 1018.9 hPa - - - -
1788104891 26.11° C 51% 1019 hPa - - - -
1788103690 25.56° C 50% 1019.1 hPa - - - -
1788102490 26.67° C 48% 1019.1 hPa - - - -
1788101290 26.67° C 45% 1019.1 hPa - - - -
1788100090 26.11° C 47% 1019.2 hPa - - - -
1788098889 26.67° C 41% 1019.3 hPa - - - -
1788097689 27.22° C 39% 1019.3 hPa - - - -
1788095295 27.22° C 42% 1019.6 hPa - - - -
1788094093 27.22° C 45% 1019.6 hPa - - - -
1788092893 27.22° C 45% 1019.8 hPa - - - -
1788091695 26.67° C 45% 1019.9 hPa - - - -
1788090492 26.11° C 48% 1019.9 hPa - - - -
1788089292 25.56° C 47% 1019.9 hPa - - - -
1788088092 25.56° C 50% 1020 hPa - - - -
1788086924 26.11° C 51% 1020 hPa - - - -
1788086891 26.11° C 51% 1020 hPa - - - -
1788085691 26.11° C 44% 1020.1 hPa - - - -
1788084491 26.67° C 45% 1020.1 hPa - - - -
1788083291 26.11° C 45% 1020.1 hPa - - - -
1788082090 25.56° C 46% 1020.1 hPa - - - -

* Rain since midnight (hover to see other rain measurements)
** Current wind speed in m/s (hover to see current wind gust speed)